Theta_e
324 323 323 323 322 319 320 323 323 324 325 326 324 320 319 319 320 321 323 322 321 321 322 324 326 326 326 326 326 326 326 326 326 326 326 325 325 325 324 324 319 313 312 311 313 314 314 315 314 313 313 313 314 318 319 318 318 320 322 324 323 323 323 323 322 321 320 319 318 318 319 319 319 317 317 317 318 318 317 319 319 319 319 323 333 335 329 325
325 324 323 323 323 320 319 322 323 323 324 326 324 321 319 320 320 321 323 323 322 323 324 325 326 326 326 326 326 326 326 326 326 327 326 326 325 325 325 324 322 316 314 313 312 314 314 314 313 313 314 315 316 317 319 319 318 320 324 323 322 323 322 319 319 318 319 319 318 318 319 318 319 317 317 317 317 317 316 318 318 320 319 320 330 334 329 325
325 324 323 323 323 321 319 320 322 323 323 325 325 323 320 319 320 321 321 322 322 323 325 325 325 325 325 325 326 326 326 326 326 327 327 326 325 325 325 324 324 320 317 315 312 313 314 314 313 313 314 316 317 318 320 320 319 319 321 322 322 322 320 317 317 318 318 319 317 318 318 318 318 317 317 317 317 317 316 317 317 319 319 318 325 329 326 325
325 324 323 322 323 322 319 320 321 323 323 323 324 324 322 319 320 321 321 322 322 323 324 324 324 325 325 325 325 326 326 326 326 327 328 327 325 324 324 324 324 323 321 317 314 312 313 314 312 312 314 315 316 318 319 319 319 319 319 321 321 319 319 317 316 317 318 318 318 318 318 318 318 317 317 317 316 316 315 316 316 318 319 317 319 321 322 323
325 324 324 322 322 322 320 320 321 322 323 323 323 324 324 320 319 320 321 321 321 322 323 323 323 324 325 324 326 326 326 328 326 325 327 327 324 323 322 322 322 323 322 320 317 314 313 313 312 312 314 315 316 318 319 319 319 318 319 320 318 318 317 316 315 316 317 318 318 318 318 318 317 317 316 316 316 316 315 316 316 316 318 318 316 316 317 319
324 324 323 323 322 322 320 321 322 322 323 324 323 324 324 322 320 320 320 321 321 321 321 322 322 323 325 325 326 326 327 329 323 320 326 326 323 320 319 319 319 319 319 320 319 317 315 313 312 312 314 315 316 317 318 318 319 318 319 319 317 317 316 315 315 315 316 317 318 318 318 317 316 316 316 316 316 317 316 316 317 316 317 318 316 315 316 316
323 324 323 323 322 322 320 321 322 322 323 324 324 324 324 322 322 321 320 320 321 321 321 321 321 323 325 325 326 325 325 326 320 319 326 325 323 320 317 317 316 316 317 319 320 319 316 313 312 312 313 314 315 316 317 317 317 317 318 318 316 316 315 315 314 315 316 317 318 317 317 316 315 315 315 316 315 316 316 317 318 317 318 318 317 315 315 315
322 324 322 323 322 321 320 321 323 322 322 323 324 325 324 322 322 322 321 321 321 322 321 322 321 323 324 325 325 323 322 324 320 320 324 324 323 320 316 316 316 315 316 317 319 319 316 314 313 312 313 314 314 316 316 317 317 316 317 317 316 315 314 313 313 314 315 316 317 317 316 316 315 315 315 315 316 316 316 316 317 318 318 320 318 315 315 315
319 324 323 322 322 320 320 321 322 322 322 322 324 325 324 323 323 322 322 321 321 321 322 322 322 323 324 325 325 322 322 324 319 319 322 323 324 320 316 316 316 316 315 315 316 317 317 315 313 312 312 314 314 315 316 316 316 316 316 316 315 314 314 313 314 314 314 315 315 316 316 315 315 315 316 315 316 316 316 315 315 317 318 320 319 316 315 315
315 320 323 322 322 320 319 321 322 322 322 322 324 324 324 324 323 323 323 322 321 321 321 321 322 324 324 324 324 323 325 323 318 318 320 321 322 319 316 315 315 315 314 314 316 317 317 315 313 312 312 313 313 314 316 316 316 317 316 315 314 314 314 314 314 313 314 314 314 316 316 315 314 315 316 316 316 316 316 314 314 315 316 318 317 315 314 315
313 316 322 322 321 320 320 320 321 322 322 323 324 324 324 324 324 323 323 323 322 322 320 321 322 323 324 324 323 323 325 322 316 316 317 318 320 318 316 316 314 314 313 314 316 317 316 315 313 313 312 313 312 313 316 316 316 316 315 315 314 314 314 314 314 314 314 314 314 315 315 314 314 315 316 316 316 315 316 315 314 314 314 317 318 316 314 313
315 315 321 322 320 320 320 320 321 321 322 324 324 324 324 324 324 323 323 323 323 322 321 321 321 322 323 323 323 324 325 323 318 317 317 316 317 317 316 316 314 312 311 313 315 315 317 316 314 312 311 312 312 313 315 315 315 316 315 316 314 314 314 314 314 314 314 315 314 315 316 315 315 315 315 316 316 315 316 315 315 314 314 316 319 319 316 314
318 319 322 321 320 320 319 320 321 321 322 324 324 323 323 324 323 323 323 323 323 323 322 322 322 322 322 322 323 324 324 324 321 320 320 316 316 317 316 315 314 311 310 313 314 314 315 314 313 312 312 312 312 313 313 314 315 315 315 316 316 315 315 315 314 314 314 314 314 315 317 318 316 315 315 316 316 315 315 315 315 315 314 315 318 319 317 316
316 320 323 321 320 319 319 320 321 321 321 323 324 323 323 323 323 323 322 323 323 323 323 322 322 321 322 322 323 323 323 324 323 321 320 317 314 316 316 315 315 312 309 312 313 313 313 312 313 312 312 312 312 313 313 314 315 315 315 316 318 317 315 315 314 313 315 315 313 315 317 318 317 315 315 315 315 315 314 315 316 316 315 315 317 318 316 315
312 317 322 321 320 319 318 320 321 321 321 322 323 322 322 323 322 322 322 322 323 323 322 320 320 321 321 321 321 322 323 323 324 322 318 316 314 315 317 316 316 314 309 310 312 313 313 313 312 311 312 312 312 313 313 314 314 315 315 316 319 318 316 315 314 314 315 314 313 314 316 317 316 315 315 315 315 315 314 315 316 316 316 315 316 317 317 315
311 315 322 321 319 318 317 319 320 321 322 322 322 322 322 322 321 321 321 322 322 321 319 317 318 320 320 320 320 321 322 324 324 319 316 315 314 314 316 316 316 314 312 312 313 313 313 312 312 312 312 312 312 313 314 315 315 315 316 317 318 317 317 316 314 314 314 314 313 313 316 317 316 315 314 315 314 315 315 315 315 316 317 316 316 317 317 316
311 316 321 321 319 318 317 318 318 319 321 321 321 321 321 321 320 320 320 321 320 317 316 318 318 319 318 317 319 321 322 324 320 315 314 313 312 312 313 315 315 314 314 313 313 313 312 312 312 313 312 312 312 313 315 316 315 316 316 317 318 316 316 317 315 314 314 314 313 313 315 316 316 314 314 314 314 314 315 315 316 316 316 317 317 317 317 316
311 314 318 320 319 317 318 318 316 318 320 320 320 320 320 320 320 319 319 319 316 314 315 317 317 320 319 314 316 321 322 322 315 312 314 312 311 311 312 314 314 314 314 313 313 313 312 312 312 314 313 312 312 312 315 317 315 315 317 316 317 316 316 317 316 315 315 315 315 314 314 315 315 315 313 313 314 314 314 315 315 316 316 316 317 317 316 315
311 314 317 320 319 317 317 317 316 317 318 319 319 318 319 319 318 318 318 317 315 314 314 315 316 320 321 316 316 318 320 319 313 311 314 313 312 312 313 314 314 314 313 313 314 312 312 314 313 314 314 312 312 312 314 317 315 315 317 316 316 318 316 317 316 315 315 315 315 315 314 314 314 315 314 313 314 314 314 314 315 316 316 316 316 316 316 315
314 318 319 319 318 317 317 317 317 317 318 318 318 318 317 317 317 317 316 316 317 317 314 315 316 317 316 317 316 315 316 316 313 311 313 313 313 313 314 314 314 314 313 314 315 312 313 315 314 313 314 313 312 312 313 315 315 315 317 315 316 319 316 315 316 314 314 315 315 316 316 315 316 316 316 314 313 314 314 314 315 315 315 316 316 316 315 315
319 320 320 319 317 317 316 317 317 317 318 318 317 316 316 316 317 317 316 316 318 317 312 315 318 315 313 316 315 314 314 313 312 311 311 312 313 313 314 314 314 314 314 314 314 313 313 315 315 313 314 314 313 313 313 314 315 315 317 316 316 319 317 315 316 313 314 316 316 316 316 315 316 317 316 314 313 313 314 314 315 316 316 316 316 316 316 315
319 318 319 318 317 316 316 317 317 317 317 317 317 316 315 316 316 317 317 317 317 315 311 314 316 313 313 315 314 315 315 313 312 312 311 312 313 313 314 314 314 314 314 314 314 314 314 314 314 313 313 314 314 314 313 314 316 316 317 317 318 319 317 315 315 314 313 315 316 317 317 316 316 317 316 315 314 314 315 315 315 316 316 316 316 316 316 315
316 316 319 317 316 317 317 318 318 318 317 316 316 316 315 316 315 316 317 316 314 313 312 313 314 313 313 314 314 315 314 313 313 313 312 311 313 313 314 314 314 315 315 314 314 315 314 314 314 313 313 314 315 314 314 315 316 317 317 316 318 320 317 316 316 315 314 314 316 318 318 318 316 317 317 315 316 316 316 316 315 315 316 316 316 316 316 316
317 317 318 317 317 317 318 318 317 316 316 316 315 315 315 315 315 316 316 314 312 311 312 313 313 313 313 313 314 314 314 313 314 314 311 311 313 313 314 314 314 315 315 314 314 314 315 313 312 313 314 315 315 315 316 316 314 318 319 317 320 320 319 319 317 314 313 315 316 315 316 317 316 316 317 316 316 316 316 317 316 316 316 316 316 316 316 317
318 318 317 316 316 317 317 316 315 315 315 315 314 314 315 315 315 316 314 313 312 311 312 312 313 313 313 312 312 314 314 312 314 314 311 311 313 314 314 314 314 315 315 315 314 315 315 312 311 315 316 316 316 315 318 318 314 316 320 319 320 320 320 320 318 315 315 318 318 315 315 319 319 316 316 315 316 317 316 316 315 316 317 316 316 316 316 317
319 318 317 316 316 316 316 315 315 315 315 315 314 314 315 314 314 315 315 315 315 312 311 312 312 313 314 313 312 313 313 312 313 314 311 311 313 314 314 314 315 315 315 315 314 316 314 310 311 317 317 318 319 316 318 320 314 313 320 323 321 321 323 322 320 319 318 319 319 317 317 320 320 317 317 317 318 318 317 316 316 316 318 317 317 317 316 317
318 318 317 316 316 315 314 314 314 315 315 315 315 313 314 314 314 315 315 316 317 314 311 311 312 313 315 313 312 312 313 314 315 314 311 310 313 314 314 314 314 315 315 315 315 316 313 311 314 319 318 320 319 316 318 319 315 316 323 326 322 323 326 324 322 321 319 319 318 317 317 318 319 319 319 320 319 319 319 319 318 316 317 318 317 317 315 316
318 317 316 316 315 314 313 313 314 315 315 316 314 313 313 313 313 314 314 314 315 315 312 310 311 313 314 313 312 312 314 315 315 314 311 311 314 314 313 314 314 315 315 314 316 316 314 315 317 319 318 319 318 319 322 319 316 321 325 324 323 324 326 324 323 320 318 319 319 319 318 318 320 320 319 320 318 318 318 319 318 316 316 316 315 316 316 316
317 316 316 315 313 313 313 314 315 315 315 316 314 312 313 312 312 313 313 313 313 313 312 310 311 313 313 313 313 312 314 314 314 314 313 312 314 313 313 314 314 315 315 315 318 318 315 314 315 318 318 318 319 322 326 322 318 320 321 323 323 325 325 322 322 321 318 319 321 322 319 317 320 320 318 319 318 319 319 317 317 315 315 316 315 316 316 316
316 316 315 313 313 313 314 315 315 314 315 315 313 312 313 311 311 312 312 313 312 311 311 310 311 313 313 312 313 312 313 313 313 314 313 313 313 312 313 314 314 316 317 319 319 316 312 311 313 317 316 316 317 316 319 322 318 318 321 323 322 321 321 320 321 319 318 320 321 322 320 317 319 321 318 319 319 320 319 317 319 318 316 316 316 316 316 315
316 315 314 312 313 313 314 314 314 314 315 314 312 311 311 310 310 312 312 312 313 312 310 310 312 313 313 312 313 312 312 313 313 313 313 313 313 312 313 315 315 317 320 322 319 315 312 312 314 314 311 312 316 315 316 317 316 320 323 322 319 319 318 318 318 317 319 322 319 319 321 319 318 319 317 318 318 318 317 317 321 320 317 316 316 316 315 314
315 315 313 312 312 313 313 314 313 313 314 313 311 310 309 309 310 312 312 312 313 312 310 311 312 313 313 313 313 312 313 314 313 313 313 313 313 312 313 315 316 317 318 320 320 318 316 315 315 314 311 312 318 317 316 315 317 321 321 319 319 320 318 318 319 319 319 319 315 314 318 320 319 317 316 317 316 316 316 315 318 318 316 316 316 315 315 314
315 314 313 312 312 312 313 313 313 313 313 312 310 309 309 310 310 311 311 311 313 313 311 311 312 313 313 313 313 313 314 315 313 313 313 313 313 313 314 316 316 316 316 318 319 318 319 317 315 316 313 313 317 316 315 315 316 319 319 318 321 320 317 317 319 319 319 317 315 314 316 319 318 316 316 317 314 315 315 313 316 316 315 316 315 314 315 314
314 313 313 313 312 312 312 311 311 312 311 310 310 309 310 310 310 311 312 312 313 312 311 312 312 313 313 313 313 313 315 315 314 313 314 314 314 313 314 315 316 316 316 317 317 317 319 318 315 317 315 314 317 317 318 318 316 319 321 319 320 320 319 318 319 322 323 318 314 313 317 320 320 318 318 315 313 314 314 313 315 314 314 314 314 314 314 314
314 313 313 312 312 311 311 310 310 310 310 310 309 309 311 310 309 311 311 312 313 311 311 312 312 312 312 313 314 313 314 316 315 314 314 314 313 313 313 313 315 316 315 317 316 314 317 318 316 315 314 314 317 318 318 317 315 319 322 321 319 321 324 321 318 321 323 320 316 315 319 322 320 319 317 314 315 315 313 313 313 313 313 312 312 313 313 313
313 313 313 312 311 311 310 309 309 309 310 310 309 310 311 310 310 311 312 312 312 312 312 312 312 312 312 314 315 314 315 316 315 315 315 314 314 314 314 313 314 315 315 316 317 315 316 318 316 314 313 314 314 315 317 316 316 318 319 319 318 320 325 322 316 315 316 318 320 318 319 319 316 317 317 316 318 317 314 314 312 312 313 312 312 313 312 312
313 312 312 311 311 310 310 309 309 309 311 310 308 310 311 310 312 313 313 313 313 313 313 312 313 312 311 313 314 315 316 317 315 315 315 314 315 314 314 315 314 315 316 315 317 317 317 317 315 315 316 313 309 312 314 313 315 318 319 318 317 318 322 320 315 316 315 315 318 318 318 316 314 318 321 316 316 318 318 316 312 311 312 312 312 313 312 312
313 312 312 312 311 310 309 309 309 310 312 310 309 311 311 312 314 314 314 314 314 313 313 312 313 312 311 312 314 315 316 316 315 316 316 315 316 315 314 315 315 315 315 315 317 318 320 320 316 314 316 313 310 314 315 312 313 316 316 317 317 318 320 317 314 318 319 315 316 319 318 317 316 317 318 316 317 319 319 318 317 313 312 312 313 313 313 313
313 312 312 311 311 310 309 309 309 311 313 311 310 311 312 314 316 314 313 314 314 313 313 313 313 313 312 313 314 315 314 314 315 316 316 315 315 316 314 315 316 315 313 315 319 321 321 323 319 314 314 315 314 315 316 315 314 314 314 314 317 318 319 319 316 317 320 317 316 318 318 320 322 318 316 317 318 318 316 319 320 315 312 313 313 313 313 314
312 312 312 311 311 310 309 309 310 311 312 312 311 311 312 316 316 313 313 314 313 313 313 315 314 312 314 315 315 315 314 315 316 315 316 315 314 315 314 315 316 315 314 316 320 320 318 322 321 315 313 315 316 315 316 316 314 314 315 314 315 315 316 319 318 318 319 317 317 316 316 321 325 319 316 315 315 319 319 322 322 315 312 314 313 313 313 314
312 312 312 311 311 310 309 310 311 311 312 311 311 312 314 316 315 313 313 313 314 314 314 315 314 313 315 315 314 315 314 314 316 315 315 315 314 314 315 315 315 315 314 316 318 318 317 319 319 315 314 315 316 316 316 316 316 315 315 314 314 315 315 317 318 319 317 316 318 316 316 323 323 316 316 316 318 322 319 319 319 315 314 315 314 313 314 314
312 313 312 311 310 310 309 311 311 311 311 312 312 313 315 315 314 314 314 313 314 315 315 315 315 315 316 315 314 315 314 314 316 316 315 314 314 315 315 314 314 314 314 315 317 318 319 319 317 315 315 315 315 313 310 313 318 318 315 316 315 314 315 317 318 319 317 315 316 314 316 323 323 320 321 319 318 316 313 312 313 312 313 314 314 315 315 314
313 313 312 310 310 309 309 311 311 311 312 312 313 314 313 313 315 315 315 314 314 316 316 316 315 315 316 316 315 316 314 313 316 316 314 315 316 316 315 314 314 313 314 316 317 316 318 320 318 316 315 315 315 314 311 313 318 317 316 318 317 314 315 317 318 320 319 317 315 314 315 318 323 326 319 312 311 311 310 310 310 310 312 312 313 315 316 315
312 311 311 311 310 310 310 310 310 311 312 313 314 315 313 314 315 315 315 315 314 316 317 316 315 315 317 316 316 316 314 313 316 316 315 317 316 314 314 314 314 314 314 314 315 314 316 319 318 317 318 317 317 316 315 316 316 317 317 316 316 317 317 316 317 317 318 321 320 317 317 317 321 324 316 311 314 313 309 309 309 310 311 311 311 313 314 316
312 311 311 311 310 310 311 311 311 310 311 313 314 315 314 314 315 314 314 314 314 314 316 317 316 316 317 318 317 316 314 315 318 317 317 319 317 314 314 314 314 314 313 314 313 313 316 318 317 318 318 317 318 317 316 316 315 316 319 317 317 320 318 315 317 316 318 322 321 318 317 316 316 317 314 316 319 316 311 310 310 310 310 310 310 311 312 314
312 312 312 311 310 311 312 312 312 311 311 313 314 314 313 314 314 313 314 315 314 313 315 317 318 317 317 318 317 317 315 315 319 318 317 320 318 315 315 314 313 313 313 314 312 312 316 317 315 315 315 315 315 315 317 318 316 316 318 318 317 318 318 316 317 317 317 319 320 320 318 315 314 314 315 317 319 318 315 312 310 311 311 310 310 311 311 312
312 312 312 311 311 311 311 312 313 311 311 312 313 312 312 313 314 312 313 315 314 313 315 316 316 317 317 317 317 317 316 315 318 318 318 318 317 314 313 314 314 312 312 312 312 313 318 317 315 316 315 314 314 316 319 319 316 315 316 316 316 317 318 318 317 317 317 317 317 319 318 316 315 314 315 318 319 318 315 311 311 312 312 311 310 311 312 311
310 311 311 311 311 311 311 311 312 312 311 311 312 312 312 313 313 312 313 315 314 314 316 317 315 316 316 316 316 317 316 317 318 318 318 317 315 313 313 314 313 311 311 313 313 315 317 316 316 317 316 316 316 319 322 319 316 316 316 316 317 316 317 318 317 316 317 317 316 316 317 317 314 313 315 317 316 315 313 312 313 313 313 313 312 311 312 312
307 309 309 310 311 312 311 311 312 312 311 311 312 312 312 312 312 312 313 315 314 314 315 315 315 315 316 316 316 316 317 317 317 317 317 315 313 314 315 314 312 310 312 315 315 314 315 315 315 316 316 316 317 320 322 320 317 318 316 315 316 316 316 316 316 315 316 317 316 315 316 316 314 314 315 314 314 313 312 313 314 314 313 314 313 312 311 311
304 306 307 308 310 311 311 311 312 313 312 311 311 313 312 311 311 311 313 314 314 314 313 313 315 315 316 317 316 316 316 316 317 317 317 314 313 314 315 314 313 312 312 315 316 313 313 316 317 316 316 316 318 321 323 321 319 319 318 317 316 315 316 315 315 315 315 315 315 315 316 315 314 314 314 314 314 313 312 313 314 313 313 313 313 312 312 312
303 304 306 308 310 311 311 312 312 312 312 311 311 312 312 312 311 311 312 312 312 313 313 314 315 315 316 317 316 315 316 317 318 317 314 314 313 313 314 313 313 313 314 316 316 314 315 317 318 317 317 317 318 322 322 320 318 318 319 320 317 316 316 315 314 315 314 315 316 315 316 315 313 313 314 314 314 312 311 313 313 313 313 312 312 312 312 312
303 304 305 307 309 310 312 313 313 312 312 311 310 311 312 312 312 312 312 311 312 313 312 314 316 314 315 316 315 314 314 315 317 315 312 313 312 311 312 312 310 313 315 315 316 315 314 316 318 318 317 316 318 321 320 317 316 316 318 319 318 316 316 315 315 315 314 315 316 315 315 314 313 314 315 315 316 314 312 312 313 313 312 312 312 312 312 312
Wind_Speed
50 49 44 42 40 42 46 49 51 49 44 41 41 41 41 42 43 42 39 38 38 35 34 32 27 25 24 23 23 24 21 19 17 19 21 21 22 22 22 21 20 13 5 6 5 5 4 4 5 4 2 4 7 7 6 7 7 3 1 3 3 4 4 2 4 5 7 6 7 15 18 11 8 10 6 6 7 8 10 9 8 8 7 9 13 14 14 17
50 50 45 44 42 41 44 47 51 51 47 43 41 42 42 43 43 43 40 38 38 36 34 31 27 25 23 20 19 20 18 17 18 22 21 20 21 23 22 22 24 21 11 4 6 5 5 4 1 2 4 5 6 7 6 6 7 5 2 3 4 4 3 3 3 4 7 10 11 14 17 12 11 14 10 6 7 10 8 8 10 8 8 11 15 15 14 16
50 49 47 45 43 42 42 45 48 50 50 46 42 42 43 44 43 43 41 39 39 38 35 30 26 24 23 22 19 17 16 14 17 21 20 19 21 23 23 23 24 26 22 9 5 3 3 3 1 1 5 7 7 8 7 6 7 8 5 2 5 6 1 6 8 8 9 17 15 13 16 12 14 17 13 8 8 10 8 10 13 12 13 14 17 16 15 17
53 50 48 46 44 43 42 42 45 48 51 49 45 43 43 45 43 42 42 41 40 39 37 31 26 24 22 22 19 17 17 12 15 21 20 19 22 22 23 22 23 27 28 19 7 2 0 2 1 2 3 7 9 10 7 8 7 6 6 3 3 5 2 6 8 9 11 18 15 14 13 9 14 16 13 11 7 7 10 13 16 16 17 17 19 18 16 18
53 52 49 48 45 43 43 41 43 47 51 51 48 45 44 45 44 43 41 41 40 38 38 35 29 26 23 21 19 16 13 5 8 16 18 19 20 20 20 20 21 24 27 26 16 8 4 2 3 3 2 5 7 7 6 12 10 2 6 7 4 6 3 5 7 9 9 14 16 14 11 9 13 12 13 14 6 5 11 14 16 18 18 17 19 18 17 19
52 53 49 47 45 43 44 42 42 45 49 50 49 47 44 44 44 43 42 40 38 37 37 36 32 29 25 22 20 16 13 5 3 8 13 19 19 18 18 17 17 16 18 25 25 18 7 2 2 3 2 4 5 5 7 13 12 3 7 9 2 5 3 3 4 9 8 12 14 12 11 12 12 8 13 15 7 6 10 12 13 17 19 17 17 18 17 19
49 53 49 46 45 44 43 43 43 43 46 49 49 48 46 44 44 43 42 40 38 37 35 34 34 31 25 21 17 16 18 13 6 4 11 19 21 20 17 15 13 10 11 18 27 26 13 3 3 7 4 3 6 6 8 11 12 6 6 5 2 5 4 1 3 7 5 8 12 13 13 13 11 7 12 16 9 7 7 10 13 14 17 18 17 17 16 16
47 53 51 46 45 44 43 43 43 43 45 47 47 47 46 46 44 43 43 41 38 37 35 34 34 32 27 23 17 13 17 17 8 5 12 17 21 22 18 15 11 10 11 14 22 28 20 9 7 10 6 4 7 7 7 6 8 8 4 1 4 5 4 1 3 6 4 6 9 12 11 10 11 6 10 16 11 8 6 6 11 12 14 17 18 17 16 15
49 52 52 48 46 44 43 43 43 44 44 44 45 45 44 45 45 42 42 41 39 38 37 35 33 31 27 24 18 11 15 16 10 10 14 14 18 23 21 16 12 12 12 11 15 21 25 19 12 10 7 7 12 8 11 6 3 9 4 3 5 5 5 4 3 4 3 3 7 9 7 6 7 4 6 15 13 11 10 8 10 13 14 16 16 16 16 16
54 51 50 49 47 44 43 43 44 44 43 43 44 43 41 42 44 43 41 40 40 40 38 35 32 30 27 25 16 8 14 16 12 12 14 12 19 25 22 18 15 17 16 13 14 16 26 27 15 12 10 9 13 7 13 9 2 8 7 7 7 5 5 4 4 4 2 2 5 5 5 4 3 3 3 11 15 13 13 11 10 13 16 17 15 15 16 17
58 55 51 51 47 45 44 43 44 45 44 43 44 43 40 39 41 41 40 38 38 38 37 35 33 31 28 27 19 11 15 18 15 13 13 11 20 27 24 20 18 19 22 20 17 18 25 28 15 14 10 6 9 8 7 8 3 9 11 7 5 5 5 4 4 6 3 2 7 4 4 4 2 3 5 10 16 16 16 15 12 12 15 17 16 16 16 17
59 60 55 52 48 46 44 43 44 46 45 43 43 42 39 38 39 39 38 36 34 33 33 32 32 31 28 26 25 22 18 20 19 15 12 9 17 27 25 20 15 15 23 23 17 18 25 25 18 15 10 5 5 6 2 5 5 9 10 5 4 4 3 4 5 7 4 2 8 3 3 1 2 7 13 13 17 17 17 17 16 14 14 16 17 17 18 18
53 59 57 52 49 47 45 43 43 46 46 43 41 40 39 37 36 37 36 33 32 29 28 28 27 28 25 20 25 29 18 15 21 20 15 11 15 24 23 20 13 11 20 23 18 18 24 24 24 17 13 8 5 6 5 5 6 8 6 3 4 3 3 6 7 7 4 3 8 3 1 5 7 16 20 15 18 18 17 16 18 19 17 16 16 17 19 19
48 54 55 52 49 48 45 43 43 45 45 42 39 39 39 37 34 35 33 30 29 28 26 26 26 27 24 18 22 28 21 14 19 22 18 16 17 21 23 21 16 12 17 22 20 20 24 26 24 17 14 10 7 8 5 3 4 6 5 3 4 2 3 6 8 9 4 2 8 4 1 5 5 14 19 17 17 19 19 17 17 19 20 19 18 18 19 20
52 52 52 52 50 49 46 44 44 44 44 42 38 36 36 37 33 31 31 30 28 28 29 28 27 24 18 16 18 20 22 21 23 24 19 18 19 23 26 24 22 17 16 19 20 21 23 22 18 14 12 8 7 6 2 2 4 3 4 4 4 3 3 2 5 10 5 2 8 3 2 4 2 5 15 17 16 17 19 18 18 18 19 21 21 21 21 21
55 55 53 53 51 50 48 45 45 44 43 41 37 36 36 34 30 27 28 28 28 29 30 28 28 23 10 9 14 15 22 28 28 22 18 19 21 23 27 26 25 19 15 18 17 17 18 17 15 13 11 6 3 4 3 3 3 4 4 3 4 5 3 1 2 6 4 4 6 3 2 2 0 5 12 15 16 15 15 16 19 19 18 20 21 22 22 21
58 57 53 53 52 50 49 46 45 45 42 40 38 36 34 30 27 26 23 26 29 30 29 27 27 20 6 5 11 18 27 30 27 20 16 20 20 20 22 24 25 20 15 15 14 13 14 15 12 9 9 5 3 4 4 4 4 4 4 3 5 6 5 4 1 4 5 3 5 5 3 4 2 7 10 14 16 15 14 15 17 18 18 19 19 20 21 22
60 60 52 51 54 50 49 47 45 44 41 42 39 34 31 27 27 27 24 26 29 26 21 21 21 11 6 12 17 25 34 30 24 19 17 20 21 19 19 20 22 20 15 12 11 12 13 12 9 5 5 5 5 5 4 4 3 3 4 2 4 6 6 5 2 6 9 4 4 6 5 8 5 6 10 15 17 17 16 16 15 16 17 18 18 19 20 22
58 63 59 54 53 51 48 47 46 45 44 42 39 35 32 31 28 25 28 30 30 19 8 21 27 7 3 19 24 24 31 29 23 20 18 20 21 17 16 16 20 21 15 8 7 12 12 7 6 5 4 6 6 7 6 4 4 5 7 5 4 4 4 3 2 4 7 4 5 6 7 10 8 6 9 15 18 19 19 17 15 15 17 18 18 19 19 21
60 63 62 57 53 51 47 49 48 47 50 45 43 41 33 29 19 15 30 35 38 24 4 27 38 7 1 20 27 21 22 25 24 23 19 19 21 18 15 15 18 17 11 7 6 11 12 5 4 6 5 8 9 8 9 6 2 3 7 8 7 5 2 1 3 1 3 3 5 7 6 8 9 7 9 17 19 16 17 18 18 18 18 19 19 19 20 21
61 56 58 57 53 51 48 52 51 51 54 47 49 44 33 36 17 15 37 32 38 28 1 24 37 7 8 28 32 28 25 22 24 27 22 19 21 17 15 15 12 8 7 11 9 8 11 6 5 9 8 7 9 10 10 6 3 4 3 6 6 4 2 2 3 2 2 1 4 8 8 9 9 8 9 15 15 14 18 18 19 21 20 20 20 20 21 22
58 53 55 55 52 51 50 54 53 53 52 46 52 41 35 47 21 22 41 18 23 25 3 26 34 9 16 30 32 33 27 20 20 27 27 24 22 16 14 14 8 6 8 10 8 5 7 6 5 10 9 3 3 10 10 6 2 3 1 3 3 2 3 3 3 2 2 1 2 2 5 9 9 8 8 11 13 16 23 23 22 24 22 22 22 22 22 22
60 56 55 53 52 53 54 55 51 51 48 47 54 37 32 41 13 17 35 14 11 18 8 33 35 13 18 25 30 30 20 17 18 24 30 28 24 19 16 13 8 8 9 8 8 5 4 5 7 9 9 3 1 5 8 4 3 2 1 1 2 4 4 1 1 2 1 1 1 4 2 6 6 6 7 13 19 18 21 25 25 25 25 25 24 23 23 23
62 59 55 55 55 55 56 52 47 46 44 47 49 31 29 32 12 22 31 12 7 11 11 34 33 18 19 19 28 27 15 16 18 23 31 30 25 19 15 13 10 8 8 11 11 8 6 5 6 7 8 7 2 2 5 4 3 3 4 2 2 4 5 2 3 3 3 2 1 3 5 5 6 8 7 13 20 19 20 23 24 26 27 25 23 23 23 23
63 61 57 57 57 56 54 49 46 45 44 49 43 26 26 29 24 33 24 7 7 7 9 26 25 18 19 17 23 25 14 14 18 24 32 33 27 17 12 15 12 7 11 13 10 8 6 4 5 7 8 9 7 4 5 6 3 3 5 4 0 2 6 7 5 5 3 2 2 2 1 5 5 10 10 9 11 14 18 20 22 26 27 25 26 26 24 23
64 61 58 59 57 56 52 46 48 47 45 50 42 29 28 33 34 31 14 4 6 6 7 18 18 17 21 18 23 23 10 9 16 24 33 34 29 18 10 12 8 6 12 11 6 3 2 1 3 6 9 8 7 5 5 6 4 3 5 4 3 5 8 9 6 4 3 2 2 3 4 5 3 5 8 8 8 10 12 12 16 22 24 25 29 30 29 27
64 61 59 60 57 58 54 47 51 51 47 49 41 32 33 40 37 23 8 2 4 8 9 12 13 16 20 20 26 20 4 9 15 20 34 35 28 18 9 8 6 6 10 8 3 2 3 3 2 4 6 6 6 4 5 7 5 3 3 1 5 7 7 8 6 4 2 2 2 1 2 2 4 5 4 5 7 6 7 6 11 18 22 26 29 32 33 33
62 61 60 60 58 59 54 50 57 53 49 49 41 35 39 45 34 14 5 2 4 9 9 9 10 14 18 21 26 15 7 18 14 12 34 35 24 15 6 8 8 6 8 8 6 2 3 5 6 8 6 4 5 3 5 9 4 3 2 2 3 5 6 7 6 3 1 3 1 4 2 1 4 5 2 4 5 5 7 8 10 17 25 26 28 29 29 29
61 61 60 59 57 52 45 49 57 47 43 48 40 36 42 39 21 4 1 4 5 6 8 12 11 14 20 20 23 14 10 17 8 9 29 29 20 12 4 8 10 4 4 4 5 1 0 5 7 9 7 5 5 1 1 7 4 4 4 4 5 4 4 4 4 4 3 1 4 6 5 2 5 5 4 3 4 6 7 8 10 17 25 26 25 25 23 23
61 62 60 58 58 49 39 45 49 38 41 49 40 36 36 26 10 4 5 4 5 5 8 14 12 15 21 16 15 16 10 7 7 15 23 20 16 11 5 10 9 6 5 5 5 1 1 2 1 3 3 3 6 3 4 2 6 7 5 5 6 4 4 3 2 4 2 2 4 5 6 5 3 5 5 4 5 7 7 7 5 8 15 19 20 20 19 20
60 62 61 60 59 50 41 44 43 37 44 48 39 34 27 11 3 5 7 5 5 5 7 11 12 16 21 15 11 15 10 5 11 18 15 12 12 8 6 8 6 6 3 4 5 2 2 3 1 2 2 4 6 4 6 4 6 6 4 5 4 3 4 3 2 3 2 3 3 3 1 2 4 5 3 2 3 5 5 5 3 5 9 12 14 15 16 16
60 61 61 60 57 48 41 43 42 41 47 48 41 34 19 5 3 4 5 7 5 5 7 11 15 16 18 16 11 13 10 6 10 14 11 10 8 8 8 7 6 5 4 3 3 2 3 2 1 2 0 3 4 4 4 4 2 2 4 6 4 1 2 0 1 2 3 3 3 2 3 1 5 6 7 8 6 5 5 5 6 9 10 10 10 11 12 12
61 61 59 57 50 41 37 38 41 45 47 47 41 27 11 5 8 7 6 6 6 9 11 13 16 16 16 14 10 12 10 7 11 12 10 10 7 8 8 7 9 7 5 6 4 3 2 1 2 3 1 4 3 4 4 0 2 3 5 6 5 4 2 2 3 2 3 2 3 3 1 2 4 5 10 14 13 10 7 6 7 10 11 9 9 9 9 9
61 60 57 52 44 36 34 37 45 49 46 42 31 15 8 8 9 9 8 5 5 10 13 13 15 17 15 12 10 12 9 6 11 11 10 10 7 8 10 10 12 8 4 7 5 6 5 2 3 3 2 5 4 2 4 5 4 4 4 5 5 5 3 4 4 3 4 1 3 3 1 3 3 3 7 9 8 7 5 6 8 9 9 9 9 9 9 9
60 59 54 46 41 35 33 42 49 48 46 38 19 7 10 11 9 10 9 5 5 10 14 15 16 15 13 9 9 13 9 5 10 10 9 11 10 10 11 10 13 10 6 7 4 6 7 3 1 1 1 4 4 2 1 6 5 3 2 4 3 4 4 3 2 3 4 2 0 2 2 4 4 5 8 5 4 5 7 9 10 12 12 12 12 12 12 12
58 56 49 42 43 39 36 46 49 44 44 31 11 6 10 8 7 9 8 7 8 12 16 15 13 12 10 7 8 14 10 6 11 9 7 9 9 10 11 9 13 13 9 7 3 4 7 2 2 2 2 1 1 1 1 3 3 2 2 3 3 3 6 4 0 0 3 0 2 3 3 5 3 6 10 9 7 6 7 9 11 14 14 14 16 16 15 15
58 52 47 43 44 42 41 48 48 44 39 21 8 10 10 7 7 6 6 9 12 15 16 12 9 11 12 9 10 15 11 7 11 9 7 9 8 11 13 10 14 16 10 7 3 3 6 2 3 1 1 2 1 1 3 3 2 4 3 4 3 2 3 3 1 1 2 2 2 4 5 4 2 4 5 4 7 6 6 7 10 12 13 15 17 16 15 15
55 49 45 43 43 41 43 48 47 43 27 11 10 13 9 6 5 6 10 14 15 16 13 9 8 9 12 11 10 14 13 9 11 9 7 8 6 10 15 10 12 18 12 6 4 3 6 4 2 3 1 1 2 1 3 3 3 3 3 2 3 1 1 1 2 2 2 3 3 3 6 4 4 4 3 2 7 8 7 8 7 9 13 16 15 13 12 13
50 40 34 41 42 38 42 48 46 36 17 7 12 11 7 6 4 10 20 18 14 15 11 8 8 8 10 11 10 13 13 11 11 8 6 7 4 9 16 10 9 17 15 5 3 3 4 4 1 3 2 1 1 1 5 2 2 2 2 2 2 2 3 3 3 3 3 3 4 3 3 4 5 6 5 7 8 8 7 7 7 9 13 15 14 12 12 14
46 27 21 41 43 35 42 45 35 23 10 9 12 8 7 6 3 15 28 24 12 8 9 9 10 10 10 11 11 11 11 10 11 8 5 7 5 6 13 11 8 14 12 5 3 2 3 3 4 0 2 1 1 2 5 6 4 2 2 4 2 1 2 1 2 2 3 3 3 3 3 5 5 5 8 10 9 7 6 4 5 7 9 11 13 13 14 15
39 14 16 42 41 37 45 34 18 13 8 11 11 6 7 6 4 13 25 27 13 2 5 10 10 10 10 11 12 10 9 9 10 8 5 8 8 4 6 9 10 12 9 5 3 2 1 3 5 3 2 2 1 1 1 2 5 5 5 7 7 5 4 2 3 3 3 3 3 3 4 6 5 2 4 7 6 5 5 4 4 4 4 7 10 12 15 15
28 6 21 46 43 44 44 20 9 11 8 9 7 3 8 9 8 10 15 20 12 1 3 8 9 9 8 10 12 11 10 8 9 9 7 8 9 4 6 12 17 17 10 4 2 2 3 5 5 3 2 2 2 2 1 2 1 1 3 5 6 6 5 5 5 4 3 2 1 2 3 6 5 2 1 3 3 4 3 3 4 4 5 6 8 10 13 14
16 11 28 45 45 48 35 10 8 10 5 6 6 4 6 7 8 9 9 11 8 2 3 6 8 10 8 8 11 12 12 9 9 12 8 7 7 5 10 19 23 17 9 5 4 3 4 5 4 3 2 1 2 2 1 2 1 1 4 4 5 7 6 5 4 4 4 3 3 2 4 6 6 3 0 1 1 1 4 5 6 7 7 7 8 10 12 13
19 26 32 39 44 42 24 8 12 12 7 9 7 3 3 4 7 10 10 9 6 4 4 5 8 9 6 7 9 12 13 8 8 10 7 6 5 4 12 25 24 14 9 8 9 8 5 3 4 5 2 2 2 2 2 4 4 3 3 3 3 4 6 4 1 2 2 4 6 5 5 7 5 2 2 3 4 5 8 9 9 10 10 9 9 10 12 14
22 21 23 34 42 33 13 5 9 10 9 10 8 6 5 2 3 7 10 9 5 5 5 4 8 9 6 7 7 8 12 7 4 6 5 5 3 2 9 26 25 13 10 14 17 14 7 4 5 6 6 6 6 7 6 4 4 1 0 5 6 6 9 6 2 3 2 5 6 5 6 9 5 2 2 4 4 5 10 11 10 11 11 11 10 10 13 15
16 9 11 22 30 24 11 5 3 7 10 10 7 8 9 5 1 2 7 7 3 6 6 4 8 9 7 9 8 8 12 7 3 5 5 5 2 3 4 18 19 11 10 18 24 16 4 3 8 9 10 12 11 7 5 8 7 6 8 10 11 10 10 8 4 4 5 4 4 5 8 12 11 3 3 5 6 7 8 9 12 14 13 12 11 11 12 15
11 9 11 14 15 15 10 7 6 7 13 14 9 8 12 10 5 2 3 1 5 8 6 3 8 9 9 12 10 8 12 9 5 7 7 5 3 2 3 6 7 9 11 18 24 14 3 4 10 12 13 12 6 4 9 11 10 13 13 11 10 10 9 8 7 8 6 3 5 9 9 14 16 9 7 8 8 7 7 10 15 16 13 11 12 12 12 13
5 10 19 20 13 10 9 9 12 13 16 17 10 9 14 12 9 8 2 1 5 9 5 3 8 12 14 14 10 7 10 8 6 7 8 6 4 3 4 6 5 4 5 11 15 8 3 7 9 9 12 10 3 4 9 11 10 11 13 13 12 12 11 11 12 12 9 7 10 13 14 17 18 11 8 9 9 9 12 14 14 12 11 11 12 13 13 13
6 7 15 18 9 7 9 9 11 13 15 16 10 9 17 17 15 12 5 3 6 7 7 7 9 12 13 12 9 8 10 10 9 8 7 7 6 5 3 3 3 2 3 5 5 1 2 5 5 6 8 9 5 5 8 10 8 9 12 14 14 14 14 16 16 17 17 15 15 17 17 18 17 12 9 11 14 16 16 12 11 11 12 12 11 12 12 11
4 5 7 10 3 6 12 10 9 10 10 13 11 8 14 17 18 13 7 9 11 8 9 12 12 12 12 11 10 9 12 13 10 9 8 8 6 4 3 3 3 2 3 4 1 2 1 3 2 5 5 5 4 6 7 8 8 8 10 11 13 14 15 17 17 17 16 15 17 17 14 16 17 12 9 11 16 16 11 11 15 17 16 14 11 10 10 11
4 4 5 8 3 5 13 10 9 10 8 11 11 9 12 16 18 13 7 11 14 12 12 12 12 11 9 12 13 11 13 12 9 13 17 15 13 11 6 6 9 6 2 3 4 2 2 2 1 5 4 4 6 8 6 5 4 3 7 10 14 15 15 16 16 14 13 13 15 13 11 16 15 8 8 13 12 12 11 15 18 18 17 16 13 11 10 13
7 4 6 7 3 5 11 9 9 10 9 11 13 12 12 12 15 13 7 7 10 12 15 14 12 10 8 12 15 12 11 9 9 20 26 21 20 19 14 15 20 15 7 5 5 4 5 5 3 5 5 5 6 10 8 7 4 4 8 13 17 17 16 15 13 13 13 12 11 10 14 17 10 3 7 11 6 9 14 18 19 20 20 18 14 11 13 18
Wind_Direction
218 219 219 213 211 211 210 211 211 211 208 207 208 207 206 207 205 201 197 196 197 196 198 201 205 207 208 212 218 222 227 232 236 235 230 221 219 221 219 211 203 196 144 108 128 134 100 151 215 268 237 209 205 200 206 205 205 199 181 232 236 234 225 224 217 159 130 138 152 166 162 144 149 167 159 141 131 132 144 140 148 174 164 130 134 158 178 178
217 217 218 213 210 210 210 211 212 212 210 208 208 208 207 207 206 203 200 197 196 196 198 202 205 206 207 211 216 219 229 236 244 247 232 218 218 221 220 213 208 206 202 144 112 122 92 91 185 265 241 231 212 199 198 195 196 198 204 215 227 244 245 21 41 95 117 151 158 165 170 158 157 169 167 171 165 147 151 167 168 171 163 149 151 168 185 184
215 215 215 213 210 209 210 211 211 212 211 210 208 209 209 208 208 206 204 201 199 200 201 203 205 208 211 214 217 219 230 243 258 253 229 217 218 219 220 217 210 209 220 212 133 120 86 86 73 270 244 247 221 193 191 187 191 212 225 233 232 247 296 57 67 67 106 144 150 159 175 170 159 165 170 182 174 167 184 181 175 177 180 172 166 179 190 185
212 213 214 214 211 209 209 210 211 212 211 212 210 209 210 209 210 208 207 206 204 205 206 204 205 210 213 215 219 222 232 256 272 256 233 218 216 216 219 221 215 211 220 219 190 199 206 56 339 244 255 265 228 194 188 186 189 209 213 227 271 281 0 75 88 85 110 140 147 153 166 159 150 159 170 182 176 178 204 197 190 190 193 191 180 189 195 189
211 211 213 213 211 208 209 209 209 212 211 211 211 210 210 209 211 209 208 209 207 208 209 209 208 210 213 213 218 220 226 254 278 256 236 213 207 213 215 217 217 210 216 220 211 206 217 332 316 262 262 275 227 191 196 198 200 229 235 238 341 355 21 64 94 103 111 138 142 145 157 149 144 157 172 185 195 180 198 205 205 198 199 203 193 195 198 195
212 208 211 211 211 206 207 208 207 212 212 211 211 209 209 209 210 210 210 211 210 209 210 212 212 212 212 212 218 218 210 213 291 256 219 200 196 206 208 204 205 200 211 219 213 212 228 333 293 256 231 268 257 215 211 201 200 223 250 239 356 31 53 34 95 109 110 140 144 151 160 151 147 164 181 193 199 152 172 187 192 194 198 205 198 196 198 199
215 209 210 210 210 206 205 207 207 209 212 212 211 210 210 209 210 211 211 212 212 211 211 212 213 213 211 207 210 209 208 223 267 255 194 190 190 197 197 187 187 186 205 214 207 208 227 291 255 246 230 251 274 245 217 190 186 209 251 233 90 75 91 27 144 117 99 130 148 165 158 154 167 174 185 200 192 144 154 162 168 181 190 197 196 196 200 202
218 210 210 209 207 204 203 205 207 208 211 212 212 211 211 209 210 211 210 211 212 212 211 210 210 213 211 207 201 195 209 220 232 203 182 187 191 193 185 177 189 201 205 206 199 198 210 247 268 254 248 231 245 238 215 182 179 214 256 143 96 84 100 107 155 134 104 107 135 158 153 156 178 169 178 199 196 180 197 171 168 171 176 188 194 196 201 202
220 211 205 208 206 202 201 202 206 208 209 212 213 211 211 210 210 210 210 212 212 212 212 209 209 211 211 210 199 196 216 210 199 185 178 189 193 187 180 179 192 202 201 196 197 196 200 222 254 261 272 267 264 239 192 193 208 210 208 96 106 93 110 108 114 137 129 121 129 145 144 138 170 166 190 208 205 201 209 194 179 175 175 186 194 198 205 208
222 217 206 205 204 200 200 201 204 207 206 209 211 209 209 209 209 208 209 211 212 212 212 210 208 207 209 206 190 198 221 199 181 178 174 188 191 181 178 186 191 191 197 193 205 209 192 200 237 276 284 282 291 277 185 194 232 190 160 104 110 98 112 119 104 132 147 162 160 166 140 103 150 171 234 218 203 203 202 192 186 184 186 191 199 206 210 212
219 222 213 206 202 198 199 200 203 205 205 207 206 206 207 207 206 205 206 208 210 211 210 210 208 206 208 203 190 201 212 191 176 167 163 178 189 184 179 193 207 201 200 186 198 220 185 186 238 283 278 269 299 300 194 191 169 155 144 111 117 111 109 126 113 142 163 165 193 203 101 93 105 189 240 204 189 202 201 194 192 187 189 191 200 210 212 214
211 218 212 205 200 197 198 199 202 203 203 203 203 205 206 205 206 204 204 206 207 207 207 208 208 207 204 199 202 210 202 184 184 184 179 183 193 192 187 203 219 207 200 180 180 209 182 188 243 267 262 267 294 292 221 201 181 156 157 135 137 139 135 163 139 160 188 178 189 184 51 160 182 217 228 197 184 196 196 198 199 194 191 190 197 204 209 212
205 209 206 202 199 196 197 197 199 201 201 202 203 206 206 203 204 203 202 203 202 202 200 200 202 202 197 196 213 220 211 184 192 202 203 209 203 194 193 211 217 194 197 181 169 189 186 205 236 245 259 274 292 291 296 258 198 166 185 183 146 163 194 170 144 158 180 187 187 157 21 222 213 220 220 201 193 192 187 194 200 202 199 195 199 204 209 209
209 206 201 199 198 196 196 195 195 198 199 199 198 200 205 204 201 202 201 198 195 193 189 189 191 192 195 206 224 224 220 212 207 205 205 214 205 186 187 206 213 202 195 182 175 189 199 217 229 240 261 259 267 290 307 277 208 170 201 214 164 163 183 162 147 157 160 205 190 151 270 239 230 211 201 195 198 192 188 192 196 203 203 202 205 209 215 213
213 210 202 197 198 196 195 193 193 197 197 196 194 195 199 198 195 198 200 197 190 186 183 184 186 186 194 220 232 221 219 227 216 204 203 210 199 184 184 195 210 214 201 191 186 192 203 212 216 236 258 245 250 278 298 233 234 198 192 200 188 171 156 150 161 168 155 169 183 165 253 249 345 160 172 181 190 188 192 196 196 202 202 204 208 211 218 219
207 209 205 198 197 195 194 193 191 194 195 195 197 197 194 190 188 191 195 193 185 179 179 179 181 182 186 223 227 218 216 217 207 197 202 206 198 190 185 186 202 211 199 197 195 189 197 199 196 212 229 220 218 241 237 209 225 227 199 175 185 184 164 156 219 196 156 128 184 223 258 233 337 152 167 177 183 187 194 199 199 202 204 203 207 213 217 219
202 203 203 197 196 195 192 192 190 191 193 192 189 184 182 184 184 183 183 185 180 171 173 176 174 177 189 221 208 204 205 203 193 188 197 201 195 194 190 180 190 202 191 189 197 188 188 188 186 200 205 199 204 215 228 206 203 224 202 189 194 185 169 155 200 205 171 152 199 209 239 261 210 165 182 187 186 193 201 204 201 199 203 204 207 214 217 218
203 203 205 197 195 194 190 190 190 189 190 189 186 176 168 167 170 172 166 164 164 158 165 171 165 167 209 204 192 193 199 196 185 183 188 191 190 191 193 183 183 187 175 172 183 178 179 182 185 198 187 190 207 202 216 204 180 182 179 220 217 186 184 171 153 178 171 194 215 181 221 258 240 170 193 199 191 195 206 210 206 201 202 205 208 213 218 221
200 203 206 198 193 190 188 189 185 186 185 180 176 166 154 147 149 161 159 152 154 152 170 178 171 167 234 195 189 193 202 198 187 186 184 183 186 184 187 190 182 172 159 154 174 177 174 168 181 206 195 194 206 204 218 210 176 186 182 203 220 181 186 165 113 166 161 173 216 192 210 240 239 209 198 200 195 196 205 213 215 211 210 211 213 216 220 224
195 196 197 193 191 186 186 187 183 184 183 174 161 151 145 141 133 157 163 164 171 168 191 183 176 175 29 173 176 181 191 196 195 191 183 178 180 176 176 180 175 170 161 150 170 183 177 168 191 206 202 195 201 212 228 235 252 228 184 191 214 183 162 78 89 159 169 160 213 219 229 241 239 232 203 191 193 198 201 206 213 214 215 215 215 218 223 229
190 191 189 188 187 184 183 185 182 182 183 179 164 153 157 158 149 179 173 177 186 177 305 183 174 161 151 161 169 175 171 180 197 195 188 182 175 170 171 170 164 177 181 153 144 168 180 198 203 199 215 206 195 205 226 248 312 321 182 171 204 187 136 30 81 160 185 130 217 221 234 248 241 245 223 185 181 201 200 196 204 208 213 216 217 220 225 232
188 191 190 185 181 181 182 181 181 181 181 182 172 167 175 170 170 189 172 163 189 189 250 180 174 157 160 163 169 175 168 166 185 190 189 182 175 171 171 174 169 176 180 153 133 149 186 217 206 197 218 241 200 198 210 240 280 322 336 136 185 182 116 53 51 130 148 128 254 220 224 251 249 247 243 201 191 202 199 198 204 207 211 215 218 222 225 230
191 192 187 181 178 177 178 178 178 178 179 182 181 183 186 178 191 189 163 119 168 191 197 178 178 160 155 166 170 170 168 165 168 181 186 179 176 180 174 176 183 172 174 165 156 167 187 208 210 200 199 198 310 192 182 212 259 251 258 148 180 168 141 179 212 140 112 143 29 6 304 268 267 260 254 232 228 220 205 207 212 212 214 216 218 224 228 228
189 188 183 178 175 174 176 175 174 178 181 184 185 184 182 183 187 161 153 104 137 176 174 177 181 168 153 162 172 173 173 173 169 179 184 177 174 182 178 179 183 172 179 180 171 176 183 188 197 186 181 181 178 184 169 178 236 238 223 235 219 171 151 125 148 136 24 11 96 10 320 281 238 233 245 232 231 230 218 214 216 217 218 219 220 223 227 229
183 182 179 175 173 174 175 172 173 179 178 180 179 165 169 179 161 151 146 89 144 155 154 174 183 185 171 162 171 174 173 179 184 187 184 179 176 176 181 188 188 177 181 186 179 179 190 187 174 172 180 184 175 189 190 174 207 249 219 211 243 128 127 112 128 130 62 312 233 123 294 284 225 212 230 221 215 222 216 211 214 218 218 217 219 221 223 225
179 177 175 174 174 174 172 171 176 177 172 178 177 155 161 170 156 152 146 72 165 162 146 171 181 190 184 170 164 165 174 187 187 192 187 181 180 176 178 187 193 192 178 181 191 177 174 148 150 168 173 177 179 200 199 173 178 233 240 209 125 95 114 127 147 145 126 231 275 119 177 267 284 238 240 206 193 214 210 208 215 217 216 217 220 223 223 222
175 174 173 174 175 174 173 174 176 175 175 182 176 154 160 167 162 161 145 71 191 160 148 168 177 184 183 172 162 158 168 162 158 185 186 180 183 185 187 179 180 199 173 160 199 185 107 116 131 149 151 161 174 200 195 170 170 211 279 300 132 125 131 145 153 164 167 137 359 343 183 267 294 279 265 153 164 213 215 221 228 223 223 224 227 230 229 228
172 172 173 175 176 177 177 175 173 176 181 181 170 159 164 170 172 174 142 153 169 143 151 167 168 176 172 168 170 162 128 152 149 181 184 181 182 187 202 185 176 185 164 157 189 217 111 159 170 153 146 169 178 199 185 165 170 222 245 5 118 134 140 148 147 155 95 72 293 253 190 279 269 250 229 133 159 220 224 222 227 227 227 227 230 233 234 233
171 172 174 174 174 175 176 174 172 175 180 175 168 165 169 172 174 161 164 185 143 131 158 159 155 167 162 164 181 178 142 159 161 164 178 182 182 181 203 188 175 135 95 124 161 237 293 178 174 158 161 177 162 50 212 174 179 197 173 71 61 70 94 126 139 126 87 72 236 224 184 206 278 251 210 179 199 222 228 225 223 224 223 223 224 225 227 228
171 172 172 171 171 172 173 173 173 174 174 173 172 169 168 170 162 141 197 195 140 144 153 153 158 165 162 161 181 185 164 153 140 145 168 182 179 178 182 180 169 122 74 55 92 102 354 126 110 131 155 151 130 74 11 138 143 140 132 82 65 47 54 62 102 104 96 249 234 220 190 184 271 261 196 186 215 214 220 233 228 207 202 204 208 210 215 220
171 171 172 172 172 172 169 170 175 177 173 173 174 168 161 157 166 179 176 149 124 144 146 150 156 161 168 169 172 181 172 119 139 151 163 177 177 180 179 176 155 119 119 69 80 76 59 87 55 65 113 127 116 76 20 45 120 118 118 113 85 36 45 29 11 95 158 242 249 289 310 170 227 253 222 219 231 205 207 221 198 155 162 179 194 205 214 220
171 171 172 173 173 172 169 168 173 175 174 174 170 163 156 141 206 209 153 143 150 170 174 164 161 166 174 173 165 171 161 128 159 166 163 170 177 185 189 184 154 138 165 143 118 124 85 90 136 70 271 197 138 100 42 11 14 102 135 132 119 95 85 81 231 173 210 240 252 297 355 260 229 249 262 267 258 219 213 214 176 158 163 179 198 214 223 227
171 171 171 173 171 170 173 173 173 173 174 173 166 160 159 160 188 195 161 164 171 162 167 166 163 164 168 169 164 166 157 143 168 172 165 168 172 187 203 202 178 174 173 150 136 144 114 12 170 106 306 232 189 139 137 195 249 182 159 145 148 148 136 194 196 195 221 256 289 282 311 268 267 261 245 248 251 238 224 214 182 165 172 191 211 228 240 244
171 171 170 172 169 166 174 177 175 175 172 167 164 163 173 173 188 192 175 175 165 151 155 157 155 157 169 175 163 164 161 148 166 166 160 168 173 191 206 204 190 184 146 147 160 169 170 212 194 157 173 190 191 179 151 147 164 193 168 140 161 170 162 185 180 186 198 204 320 301 257 193 205 249 239 237 244 239 221 212 204 196 197 205 218 233 249 260
170 170 169 169 166 164 170 173 171 171 166 162 165 176 176 179 187 186 177 161 151 152 149 150 150 156 174 176 155 168 174 152 167 168 165 180 187 188 194 197 192 185 155 158 175 173 176 201 241 289 285 165 170 230 121 122 145 225 152 121 180 195 147 137 168 174 155 106 288 237 246 212 205 271 276 252 212 210 220 225 227 228 224 219 223 231 241 254
167 167 168 166 166 168 171 172 170 167 163 161 165 185 188 198 184 176 172 152 152 152 144 147 154 158 170 171 159 174 178 156 166 172 180 193 201 194 192 195 190 190 180 163 151 159 167 204 320 337 354 44 139 252 23 109 157 181 135 156 203 168 115 115 220 52 104 139 229 187 253 278 281 291 277 250 225 216 221 232 236 235 231 227 228 233 239 247
164 165 167 166 169 172 172 173 170 165 167 170 175 183 198 206 175 160 141 131 140 146 143 150 166 167 169 173 174 174 166 154 169 178 179 185 205 200 195 198 191 195 195 162 159 188 152 114 335 7 43 338 328 78 57 43 93 117 153 190 177 72 76 120 182 17 88 233 239 176 215 259 250 272 289 247 230 232 219 225 238 236 231 229 232 238 244 247
162 164 166 169 174 172 171 172 169 167 173 188 190 191 199 189 169 150 136 131 139 149 152 158 166 178 179 173 174 171 162 162 177 182 173 178 207 193 188 197 190 194 198 155 144 183 131 108 339 354 31 287 331 96 116 18 23 117 165 170 117 129 235 142 177 189 162 221 263 225 220 229 200 221 295 243 224 238 225 210 218 223 222 226 233 238 238 236
158 159 165 174 176 171 169 170 169 171 180 193 195 199 187 174 173 154 146 139 145 156 162 164 160 176 184 171 161 165 170 174 173 175 178 184 208 188 184 188 183 192 197 158 140 179 120 121 194 339 341 190 353 220 176 170 0 40 82 75 76 166 179 166 192 192 156 195 255 255 225 241 224 210 225 225 219 225 222 208 208 217 222 230 237 236 231 230
157 155 166 178 177 168 165 166 168 177 193 195 193 189 166 166 165 155 151 146 151 167 167 166 164 167 172 166 158 164 176 175 168 179 196 178 183 198 190 184 171 182 178 116 95 169 74 97 150 52 338 162 177 235 191 171 170 152 121 142 160 161 124 130 236 195 143 168 231 246 246 259 247 208 207 220 222 211 195 173 187 211 223 237 245 241 235 232
159 149 164 179 179 164 158 162 172 187 200 199 195 180 160 145 129 158 156 152 154 178 166 162 166 167 160 160 163 166 171 173 173 184 197 178 179 214 209 182 160 165 159 106 103 175 72 92 125 134 176 183 209 329 12 181 182 174 174 176 180 172 137 140 234 208 160 175 197 209 254 265 254 221 195 207 208 185 162 148 174 207 222 235 244 240 236 232
161 137 166 179 178 162 157 162 188 192 199 192 183 143 145 139 143 163 160 155 153 97 155 160 162 163 159 161 165 163 164 174 180 183 197 194 181 192 203 169 152 156 160 143 157 157 85 94 106 121 166 193 282 324 354 289 240 172 218 196 175 177 162 167 201 199 183 214 135 154 265 269 260 265 139 164 149 139 156 187 210 235 239 234 237 231 228 228
155 118 158 178 174 162 161 170 184 193 219 170 141 90 132 145 151 157 155 156 157 133 142 154 161 164 166 162 159 162 166 173 186 185 189 189 175 184 183 161 151 155 158 147 165 150 102 100 105 87 46 339 297 291 310 295 243 214 245 215 175 193 187 170 181 164 165 193 152 168 254 262 264 269 224 284 299 206 231 237 231 238 240 236 234 224 221 220
127 118 145 172 173 167 171 182 179 190 199 168 155 112 133 157 153 158 165 163 157 154 141 143 159 161 161 152 151 166 172 173 192 190 178 172 181 200 171 159 155 160 174 176 176 169 158 137 119 114 102 9 348 315 275 250 212 203 224 185 163 170 149 128 110 113 158 209 174 174 244 253 263 323 0 300 293 277 261 252 243 241 240 240 236 224 221 217
118 118 138 162 173 180 196 209 184 183 176 170 167 155 146 126 131 158 166 160 150 151 139 126 143 139 135 136 128 159 178 179 175 177 167 156 170 318 163 163 164 170 184 177 164 160 167 167 149 153 168 179 194 206 210 198 179 176 124 163 171 164 153 162 176 132 209 227 179 172 243 253 255 38 3 273 265 267 261 250 245 244 239 238 238 231 225 219
129 125 127 154 179 201 240 281 218 178 171 173 173 168 160 143 109 141 151 159 173 153 136 114 129 125 131 146 135 159 189 192 139 154 166 144 131 335 163 165 167 164 164 164 157 151 149 185 181 191 198 199 205 202 136 111 140 193 202 184 185 187 176 167 154 171 203 213 197 212 241 257 258 219 192 238 230 237 247 231 227 235 233 226 227 232 229 223
143 156 148 155 181 206 237 260 233 189 178 180 175 173 169 155 145 135 108 158 183 154 127 111 143 145 155 161 155 167 186 183 145 153 164 138 92 26 103 135 146 142 144 157 158 147 114 201 197 206 217 220 218 148 129 135 168 196 196 188 189 190 177 164 180 204 196 180 238 237 232 252 257 234 203 224 225 232 243 227 224 232 235 227 221 224 227 226
124 160 167 168 170 194 208 207 204 193 182 183 177 165 170 162 158 170 134 29 172 156 128 137 172 172 167 164 162 161 170 173 169 170 163 141 113 95 66 33 53 114 131 153 160 143 127 201 202 205 223 236 229 142 152 165 184 194 190 190 190 186 179 182 200 208 193 192 234 234 226 241 252 244 222 216 205 216 232 230 225 228 233 229 218 217 224 230
87 119 162 170 172 200 186 162 180 191 182 182 183 171 175 174 172 173 147 113 178 182 164 169 186 182 172 168 164 158 165 174 184 183 155 130 135 131 100 46 53 44 51 126 158 94 111 196 196 178 220 249 232 186 181 179 185 195 195 195 190 187 190 195 205 210 204 206 225 231 234 245 251 245 232 220 214 225 234 223 209 215 223 222 214 217 228 240
93 68 152 166 129 178 174 149 161 185 182 184 191 187 182 183 180 173 158 163 174 185 188 185 183 179 174 175 175 179 187 184 177 171 139 121 142 149 127 142 136 51 40 103 109 359 134 200 173 145 203 253 208 191 193 178 180 197 202 199 192 191 200 206 212 214 210 214 227 233 244 255 251 239 237 236 225 224 222 203 207 219 220 215 214 222 241 262
133 65 134 153 90 158 174 167 170 180 181 187 194 190 187 191 184 171 173 189 180 177 187 183 172 170 173 183 193 200 194 179 155 156 155 152 165 172 164 154 146 137 144 148 141 125 161 208 106 125 180 237 193 181 171 124 115 198 211 204 196 195 203 210 214 215 208 211 228 236 241 250 248 227 239 248 225 203 202 204 212 219 215 217 226 234 257 275
138 108 130 144 96 156 169 167 178 188 188 191 194 189 187 191 181 166 170 200 194 186 184 171 156 162 180 195 203 204 184 168 158 167 169 167 168 169 164 159 155 155 165 164 159 166 160 165 161 147 179 232 203 172 147 99 85 240 225 205 200 201 205 210 218 222 213 205 215 222 231 243 246 181 237 253 211 187 210 212 216 223 221 223 232 246 268 273